A/2020 B1

Japanese version
Home page
Updated on March 22, 2020

---------------------------------------------------------------------

* Profile

Discovery Date January 19, 2020
Magnitude 22.06 mag
Discoverer Pan-STARRS 1 telescope (Haleakala)

* Orbital Elements

Epoch 2019 Dec. 23.0 TT = JDT 2458840.5
T 2019 Dec. 25.95052 TT                                 Rudenko
q   1.7476175            (2000.0)            P               Q
z  +0.0192096      Peri.  154.79197     -0.27276078     -0.93086858
 +/-0.0000000      Node   310.03442     +0.82014724     -0.09289564
e   0.9664290      Incl.   18.51007     +0.50295135     -0.35334697
H   21.0
From 32 observations 2020 Jan. 19-Feb. 26, mean residual 0".1.

* Magnitudes Graph

        H = 21.0  G = 0.15

---------------------------------------------------------------------

The orbital elements are published on M.P.E.C. 2020-E26.
The magnitudes graphs are made with Comet for Windows.

---------------------------------------------------------------------

Copyright(C) Seiichi Yoshida (comet@aerith.net). All rights reserved.